Regional Weather Roundup
Issued by NWS Charleston, WV

Current Version | Previous Version | Text Only | Print | Product List | Glossary On
Versions: 1 2 3 4 5 6 7 8 9 10 11 12 13 14 15 16 17 18 19 20 21 22 23 24 25 26 27 28 29 30 31 32 33 34 35 36 37 38 39 40 41 42 43 44 45 46 47 48 49 50
000
ASUS41 KRLX 061310
RWRRLX
West Virginia Regional Weather Roundup
National Weather Service Charleston WV
900 AM EDT FRI MAY 06 2016

Note: "fair" indicates few or no clouds below 12,000 feet with no
significant weather and/or obstructions to visibility.

WVZ003-061400-
Northern Panhandle of West Virginia

CITY           SKY/WX    TMP DP  RH WIND       PRES   REMARKS
WHEELING       PTSUNNY   53  43  68 N10       29.84R
$$

WVZ009-061400-
Northwest West Virginia

CITY           SKY/WX    TMP DP  RH WIND       PRES   REMARKS
PARKERSBURG      N/A     54  45  71 VRB6      29.88S
$$

WVZ006-061400-
Western West Virginia

CITY           SKY/WX    TMP DP  RH WIND       PRES   REMARKS
HUNTINGTON       N/A     54  43  66 NW8       29.90R
$$

WVZ015-061400-
West Central West Virginia

CITY           SKY/WX    TMP DP  RH WIND       PRES   REMARKS
CHARLESTON     PTSUNNY   52  46  80 VRB6      29.87R
$$

WVZ022-031-061400-
North Central West Virginia

CITY           SKY/WX    TMP DP  RH WIND       PRES   REMARKS
CLARKSBURG     CLOUDY    51  46  83 N5        29.82R
MORGANTOWN     CLOUDY    50  44  80 N5        29.82R
$$

WVZ025-035-042-045-061400-
Southern West Virginia

CITY           SKY/WX    TMP DP  RH WIND       PRES   REMARKS
BECKLEY        CLOUDY    45  42  89 N7G18     29.84R
LOGAN          NOT AVBL
BLUEFIELD      LGT RAIN  43  42  97 VRB6      29.85R FOG
LEWISBURG      PTSUNNY   49  41  73 N9        29.79R
$$

WVZ047-061400-
Northern Mountains of West Virginia

CITY           SKY/WX    TMP DP  RH WIND       PRES   REMARKS
ELKINS         CLOUDY    47  43  86 N3        29.80R
$$

WVZ052-061400-
Eastern Panhandle of West Virginia

CITY           SKY/WX    TMP DP  RH WIND       PRES   REMARKS
MARTINSBURG    LGT RAIN  52  48  86 N7        29.71S
PETERSBURG     CLOUDY    53  50  89 CALM      29.77S
$$



USA.gov is the U.S. government's official web portal to all federal, state and local government web resources and services.